User: anonymous   Login
Location: Unspecified
(0.0000°N, 0.0000°E)
Time: 00:39:42
(UTC+00:00)
Language:

NAVSTAR 64 (USA 206) - Orbit

View from above orbital plane
View from above orbital plane
View from above satellite
View from above satellite

Ground track
Ground track

The orbit data is extracted from the following two-line orbital elements,

1 35752U 09043A   17051.38159247 -.00000022  00000-0  00000+0 0  9995
2 35752  54.2407 164.2536 0047889  29.6061  28.5422  2.00561477 55075
Epoch (UTC): 20 February 2017 09:09:29
Eccentricity: 0.0047889
inclination: 54.2407°
perigee height: 20055 km
apogee height: 20309 km
right ascension of ascending node: 164.2536°
argument of perigee: 29.6061°
revolutions per day: 2.00561477
mean anomaly at epoch: 28.5422°
orbit number at epoch: 5507

The dashed part of the orbit path shows where the satellite is in the earth's shadow,  

DLR